Location: Risskov
(56.1972°N, 10.2480°E)
Time: 23:51:43
(UTC+00:00)

ATLAS 5 CENTAUR R/B - Pass Details

Date: 05 July 2020
Orbit: 534 x 1124 km, 63.4° (Epoch: 09 August)

Event Time Altitude Azimuth Distance (km) Brightness Sun altitude
Rises 21:07:02 0° 221° (SW) 2,748 4.7 -6.0°
Reaches altitude 10° 21:09:08 10° 219° (SW) 1,900 3.9 -6.1°
Maximum altitude 21:13:21 68° 136° (SE) 688 1.6 -6.4°
Drops below altitude 10° 21:18:14 10° 55° (NE) 2,197 4.5 -6.8°
Sets 21:20:49 0° 53° (NE) 3,221 5.4 -6.9°
